TimeCST,TemperatureF,Dew PointF,Humidity,Sea Level PressureIn,VisibilityMPH,Wind Direction,Wind SpeedMPH,Gust SpeedMPH,PrecipitationIn,Events,Conditions,WindDirDegrees,DateUTC
12:55 AM,58.6,56.1,91,30.14,4.0,WSW,6.9,-,0.12,Rain,Rain,240,2012-11-23 06:55:00
1:55 AM,58.5,56.8,94,30.14,9.0,WSW,6.9,-,0.14,Rain,Light Rain,240,2012-11-23 07:55:00
2:55 AM,58.1,57.2,97,30.17,6.0,NW,3.5,-,0.07,Rain,Light Rain,310,2012-11-23 08:55:00
3:20 AM,57.2,57.2,100,30.17,10.0,NW,3.5,-,N/A,,Mostly Cloudy,320,2012-11-23 09:20:00
3:55 AM,55.9,55.0,97,30.17,10.0,Calm,Calm,-,0.05,,Partly Cloudy,0,2012-11-23 09:55:00
4:13 AM,53.6,53.6,100,30.19,2.0,NW,3.5,-,N/A,,Clear,310,2012-11-23 10:13:00
4:16 AM,53.6,51.8,94,30.19,1.8,Calm,Calm,-,N/A,,Clear,0,2012-11-23 10:16:00
4:21 AM,53.6,53.6,100,30.19,2.0,Calm,Calm,-,N/A,,Clear,0,2012-11-23 10:21:00
4:24 AM,53.6,53.6,100,30.19,3.0,Calm,Calm,-,N/A,,Clear,0,2012-11-23 10:24:00
4:55 AM,55.4,55.2,99,30.22,10.0,West,4.6,-,N/A,,Mostly Cloudy,270,2012-11-23 10:55:00
5:55 AM,55.6,49.3,79,30.25,10.0,North,6.9,-,N/A,,Overcast,350,2012-11-23 11:55:00
6:55 AM,53.2,38.1,57,30.29,10.0,North,8.1,-,N/A,,Overcast,350,2012-11-23 12:55:00
7:55 AM,52.3,35.1,52,30.32,10.0,NW,4.6,-,N/A,,Overcast,320,2012-11-23 13:55:00
8:55 AM,55.2,34.9,46,30.34,10.0,NW,9.2,-,N/A,,Clear,320,2012-11-23 14:55:00
9:55 AM,56.8,35.6,45,30.35,10.0,NNW,6.9,-,N/A,,Clear,330,2012-11-23 15:55:00
10:55 AM,58.3,33.6,39,30.33,10.0,North,10.4,18.4,0.01,,Clear,350,2012-11-23 16:55:00
11:55 AM,59.9,32.4,35,30.31,10.0,NW,10.4,-,N/A,,Clear,310,2012-11-23 17:55:00
12:55 PM,61.9,31.6,32,30.28,10.0,WNW,5.8,18.4,N/A,,Clear,290,2012-11-23 18:55:00
1:55 PM,63.3,30.9,30,30.26,10.0,West,10.4,20.7,N/A,,Clear,270,2012-11-23 19:55:00
2:55 PM,64.0,28.8,26,30.26,10.0,NW,11.5,-,N/A,,Clear,310,2012-11-23 20:55:00
3:55 PM,60.3,30.0,32,30.27,10.0,North,15.0,19.6,N/A,,Clear,350,2012-11-23 21:55:00
4:55 PM,55.2,27.7,35,30.30,10.0,NNW,10.4,-,N/A,,Clear,340,2012-11-23 22:55:00
5:55 PM,50.0,27.1,41,30.32,10.0,North,10.4,-,N/A,,Clear,350,2012-11-23 23:55:00
6:55 PM,46.6,24.8,43,30.36,10.0,North,8.1,-,N/A,,Clear,350,2012-11-24 00:55:00
7:55 PM,44.1,24.6,46,30.38,10.0,NNW,4.6,-,N/A,,Clear,330,2012-11-24 01:55:00
8:55 PM,41.9,24.3,50,30.38,10.0,NW,4.6,-,N/A,,Clear,310,2012-11-24 02:55:00
9:55 PM,40.8,24.3,52,30.39,10.0,NW,4.6,-,N/A,,Clear,310,2012-11-24 03:55:00
10:55 PM,40.5,24.1,52,30.40,10.0,NW,6.9,-,N/A,,Clear,320,2012-11-24 04:55:00
11:55 PM,39.0,23.4,53,30.40,10.0,North,4.6,-,N/A,,Clear,350,2012-11-24 05:55:00